RH
68 64 63 61 56 52 49 46 44 39 34 28 24 21 18 16 16 17 23 29 32 34 34 32 30 28 26 24 22 20 19 19 20 25 30 36 40 41 40 36 28 21 17
73 62 58 55 53 52 52 49 45 38 32 27 22 19 26 47 57 63 67 69 68 64 56 47 36 28 24 20 19 19 18 19 20 22 24 28 30 29 26 24 23 21 20
63 61 60 58 56 55 54 51 45 38 31 26 30 55 68 75 74 76 78 78 66 46 29 24 24 25 24 24 23 22 22 22 22 24 26 27 28 28 26 24 23 23 22
64 62 60 58 56 55 53 49 43 36 28 31 66 72 74 79 82 82 71 49 31 34 38 38 37 35 33 31 29 27 27 27 27 28 28 29 29 31 30 29 29 30 30
66 64 62 62 59 55 53 47 39 36 42 57 69 78 86 89 91 81 60 54 49 57 55 49 48 47 43 37 32 31 30 32 35 38 40 43 45 48 48 49 45 46 44
70 68 66 63 61 58 55 48 41 56 71 84 84 92 92 90 75 62 45 38 41 57 57 64 65 59 46 38 33 33 35 42 50 55 57 60 62 72 71 70 63 65 60
73 70 64 62 62 60 58 51 59 81 82 87 92 96 97 77 53 49 46 46 52 66 72 74 68 58 49 42 38 36 35 42 51 62 52 54 59 73 85 77 77 74 58
75 70 64 64 63 62 59 56 71 75 90 92 94 94 90 70 56 54 55 57 65 73 79 74 61 53 48 44 41 38 36 36 35 41 46 43 53 59 73 66 63 60 59
80 75 69 66 65 63 65 80 86 93 92 89 93 94 76 49 45 47 64 76 82 84 78 66 58 50 41 38 38 36 36 35 37 40 43 57 68 76 85 94 81 86 92
80 82 77 72 69 68 72 85 95 97 93 94 94 96 96 87 55 62 89 90 88 82 67 55 44 39 38 55 96 96 95 56 54 52 56 58 63 65 74 90 98 100 100
80 83 89 87 85 89 91 89 87 97 95 91 89 91 91 85 85 93 94 86 70 55 45 39 36 41 48 93 100 98 93 88 77 80 80 82 80 74 77 73 75 78 79
77 77 85 95 94 93 94 92 99 97 96 94 95 91 86 93 95 93 74 54 45 50 48 45 43 51 92 100 98 96 97 96 98 91 90 91 84 76 76 87 95 85 86
78 77 78 83 94 96 95 95 96 97 96 92 91 91 94 94 77 53 44 43 44 64 56 50 69 98 99 95 92 98 100 97 90 96 98 95 90 86 80 84 79 76 86
80 79 80 83 86 93 97 97 96 93 90 92 93 93 78 51 45 45 44 45 49 54 57 73 91 94 96 94 77 57 65 86 93 95 93 95 99 100 93 89 97 95 95
82 82 84 85 87 88 91 93 94 95 91 80 60 49 48 50 52 55 62 75 84 83 89 93 96 87 85 78 74 78 80 87 86 84 81 79 69 69 80 84 87 94 93
86 88 90 90 90 86 84 72 60 52 49 50 51 56 75 85 82 95 100 99 98 98 96 93 92 99 98 92 87 79 79 82 84 83 80 84 92 89 83 82 84 75 86
71 66 56 50 47 47 48 50 52 54 54 74 93 100 100 100 100 100 99 99 100 100 96 99 97 94 90 86 84 83 82 78 82 88 97 98 95 90 85 96 96 93 94
41 43 44 47 50 51 52 53 53 55 57 58 60 63 63 69 98 100 100 100 96 94 93 90 85 79 74 69 66 66 66 68 70 73 81 81 78 82 93 94 96 95 96
45 48 50 52 52 53 53 54 55 56 57 58 61 64 68 79 97 100 100 98 91 78 68 66 64 62 62 63 64 67 68 69 73 78 90 96 93 94 95 97 98 100 98
49 50 50 51 53 53 54 56 58 59 60 62 65 67 76 80 78 75 75 75 80 79 73 62 59 63 66 69 71 74 76 78 76 74 77 92 99 100 97 97 98 97 96
53 55 56 52 53 55 57 57 59 63 66 72 75 80 83 96 98 96 92 88 84 71 69 66 66 68 71 76 80 85 88 89 89 88 85 83 94 97 97 97 96 95 95
54 55 58 57 56 56 57 60 63 65 70 75 78 83 84 100 98 91 81 75 72 70 69 71 71 72 75 80 86 91 93 92 90 94 96 94 93 94 96 96 94 92 90
53 54 54 55 56 56 55 55 60 67 73 80 80 76 74 76 76 78 76 70 68 68 71 73 74 73 78 85 91 95 95 92 93 97 98 97 98 97 97 96 96 96 96
54 52 53 52 54 54 55 59 63 67 70 68 70 73 76 78 78 76 73 71 70 71 73 75 77 78 83 90 95 97 99 97 98 98 99 98 97 97 98 96 95 96 96
51 51 52 52 54 56 59 59 63 66 70 80 86 86 80 76 74 73 72 71 72 74 74 76 78 82 90 96 99 100 100 97 97 98 96 96 97 97 97 96 96 96 96
51 51 53 55 56 58 59 63 70 81 86 88 90 88 83 81 75 71 72 73 75 77 77 76 76 84 92 96 96 100 98 98 94 94 100 99 95 93 97 96 96 97 96
Wind_Speed
14 14 14 16 17 17 16 15 14 13 13 13 13 13 13 12 12 11 10 8 6 5 5 4 4 4 3 4 4 4 5 6 7 7 8 8 9 10 12 12 13 13 12
15 16 17 18 18 18 17 16 15 15 15 13 14 14 14 13 11 7 4 3 4 5 6 6 6 5 5 4 4 4 5 5 5 7 8 9 10 12 12 12 12 12 11
16 17 18 17 17 16 16 16 15 15 15 16 15 14 12 7 4 5 6 6 6 6 6 5 4 4 3 3 3 3 4 5 5 6 8 9 10 11 12 13 12 12 12
16 17 16 15 15 16 16 15 15 15 15 16 15 11 6 5 6 5 6 7 7 6 5 4 3 2 3 4 4 5 6 6 7 7 8 9 10 11 12 12 12 12 11
17 16 16 15 16 16 15 16 16 16 14 13 8 7 7 6 7 8 8 8 8 7 5 4 4 4 6 7 6 7 7 8 8 8 9 10 11 11 12 12 13 13 12
16 16 16 17 19 17 16 17 17 17 12 8 8 8 8 9 9 9 9 8 8 6 5 5 7 8 8 8 9 10 11 11 11 13 13 14 14 14 13 13 13 14 15
16 16 17 20 20 18 16 17 17 12 9 7 7 9 11 11 11 10 10 9 8 8 8 9 10 10 11 11 12 13 14 14 15 15 17 17 17 15 14 14 16 18 19
16 17 18 20 20 18 18 18 16 12 8 8 9 11 12 11 11 10 10 10 9 11 11 12 12 12 13 14 15 16 16 17 17 19 21 21 21 20 21 20 18 17 16
17 17 18 19 19 19 19 16 14 12 8 8 9 11 12 12 11 10 11 12 13 13 13 14 15 15 15 16 19 19 19 18 18 19 20 21 20 19 18 17 17 20 23
14 16 18 19 19 19 19 17 14 13 8 8 10 11 12 12 11 11 14 14 14 15 15 15 16 17 17 17 16 18 21 21 19 20 20 20 19 20 21 23 24 23 19
13 14 17 19 20 19 19 19 18 16 10 8 9 10 12 12 13 14 13 14 15 16 17 17 17 17 17 15 15 18 21 20 20 18 18 18 18 20 22 22 24 26 26
12 12 14 17 19 20 19 19 18 13 11 10 11 12 12 13 12 13 14 15 16 17 18 19 18 18 17 15 16 19 19 20 23 23 24 24 23 22 21 20 19 24 26
12 11 11 13 15 17 18 19 18 16 14 13 13 14 13 13 14 15 15 15 15 15 17 16 16 16 17 20 23 23 21 21 24 22 22 26 26 24 22 23 24 22 24
12 11 11 11 13 15 16 17 17 16 15 15 14 13 14 15 15 15 15 14 13 13 12 10 12 14 16 18 18 16 18 24 26 27 25 23 18 21 22 21 21 20 23
12 11 11 11 11 12 13 13 13 14 14 14 14 14 14 13 13 13 12 11 11 12 15 18 18 18 19 20 19 19 18 17 20 21 23 25 28 31 31 29 29 26 27
12 11 10 10 11 11 12 12 13 13 13 13 13 11 11 13 13 10 10 12 14 14 19 21 22 21 21 23 25 26 24 23 24 25 26 25 23 25 28 27 28 29 30
11 11 11 11 11 11 12 12 13 14 14 13 13 15 14 14 13 14 14 13 13 17 20 22 24 25 27 28 28 28 29 28 27 25 24 25 26 27 28 27 26 28 30
12 12 12 12 13 13 13 13 14 14 15 15 16 17 17 17 13 13 13 14 20 21 24 26 27 28 29 29 28 28 28 28 30 31 30 28 28 27 28 29 28 30 28
13 13 13 13 13 14 15 15 15 16 16 16 16 16 16 16 15 14 13 20 22 22 22 23 24 25 26 27 26 27 28 29 28 27 26 26 25 26 29 28 28 28 28
14 14 14 15 15 16 16 16 16 16 17 16 16 15 15 17 17 16 16 18 19 21 22 23 24 23 23 23 23 23 24 24 25 27 27 27 28 28 26 26 26 25 26
15 15 16 16 16 15 16 16 16 16 17 17 17 16 16 16 16 16 18 20 22 23 25 26 24 23 22 22 21 21 22 23 23 23 24 26 27 29 29 29 27 27 27
17 17 17 17 16 17 16 16 17 17 17 18 17 17 17 15 19 20 20 22 24 24 25 24 24 23 22 21 20 21 22 23 22 21 22 23 25 28 28 29 30 30 30
18 18 18 18 18 18 18 18 17 17 17 17 17 17 17 18 19 21 22 23 24 25 23 23 23 22 20 19 19 20 22 23 22 21 21 21 22 23 24 26 27 28 28
19 19 18 18 18 18 18 17 18 18 18 17 17 18 19 20 21 23 24 25 23 22 22 22 22 21 19 18 19 20 22 23 22 22 22 22 22 22 22 23 24 24 25
19 19 18 18 18 18 17 18 17 17 17 19 20 21 21 22 23 24 24 23 22 23 22 22 21 20 18 18 18 21 25 25 24 23 23 22 22 21 21 22 23 23 22
20 19 19 19 18 17 18 17 17 19 21 22 22 22 23 25 25 23 22 23 23 23 22 22 21 20 19 19 21 24 27 22 21 20 21 23 24 22 20 19 18 20 20
Wind_Direction
163 168 171 169 167 168 173 176 179 179 177 173 169 165 163 159 152 147 143 142 147 156 165 175 192 203 215 226 233 236 236 234 233 234 243 250 258 269 279 285 289 291 291
161 162 163 164 164 168 171 174 174 175 170 170 165 162 156 151 148 150 169 211 232 234 229 227 228 229 231 238 244 250 251 249 243 243 248 254 262 272 280 287 290 293 291
160 160 161 164 167 169 171 170 169 171 168 163 161 161 160 170 223 259 265 252 225 205 193 185 186 191 205 230 252 264 266 263 257 252 255 262 270 278 284 287 289 290 291
163 163 163 164 168 169 169 169 167 166 167 166 168 176 212 253 248 221 197 188 179 175 178 188 206 237 262 272 276 277 277 276 272 268 269 273 280 287 290 291 290 291 290
171 171 170 168 169 168 170 167 164 162 166 170 197 239 244 220 198 191 191 192 189 191 201 217 240 265 276 276 277 277 276 276 278 278 278 279 283 288 289 294 296 296 292
177 180 181 179 174 173 174 172 169 168 178 198 229 217 202 194 192 195 197 201 206 219 234 257 275 281 279 278 277 276 274 272 273 274 275 277 279 281 286 289 289 295 301
180 181 181 178 177 177 180 181 180 184 195 215 214 211 202 195 195 199 205 211 221 241 263 276 278 279 280 278 275 272 269 269 273 275 273 274 276 280 281 282 286 289 289
183 182 179 179 181 182 181 183 192 199 208 224 213 204 198 198 206 214 227 235 249 268 276 277 277 279 281 281 278 276 274 271 270 268 273 275 273 274 275 282 282 280 282
189 187 185 186 188 189 188 193 203 202 207 206 204 205 202 204 213 223 241 259 270 273 274 276 279 281 282 281 279 279 278 275 272 268 268 269 271 274 279 280 275 277 277
186 192 194 194 196 199 201 207 211 205 203 208 213 212 217 219 227 244 263 266 267 271 275 278 281 284 284 283 283 284 282 282 280 275 268 267 268 263 255 248 256 261 264
181 186 193 197 200 203 207 210 211 213 212 214 227 227 226 228 241 255 257 264 270 275 277 279 279 279 279 277 275 277 280 288 289 286 282 276 269 260 257 256 257 259 264
178 183 190 195 198 198 200 202 208 211 216 230 238 229 237 250 253 256 263 269 275 279 281 283 286 288 284 281 279 274 275 275 274 275 276 276 277 272 262 258 266 257 260
171 170 175 184 193 199 203 204 209 216 229 237 237 244 251 254 261 268 272 274 275 273 281 287 286 283 274 263 262 264 269 269 268 274 272 271 275 277 275 273 267 269 261
174 171 169 172 180 188 196 206 215 223 231 237 243 248 256 263 268 270 274 277 281 285 287 275 287 283 284 284 287 283 277 267 268 271 273 274 278 274 273 272 264 261 265
182 184 185 187 188 194 200 209 218 225 233 241 248 252 256 259 262 270 274 284 295 296 301 291 287 283 282 284 284 279 278 274 276 276 280 279 275 272 272 270 268 267 266
198 202 203 204 205 210 216 223 229 235 242 246 247 253 263 273 275 273 270 273 276 280 275 279 280 281 281 284 285 284 281 281 280 278 276 275 277 277 273 273 273 263 262
212 215 218 222 227 231 234 238 243 244 246 241 235 230 234 261 272 264 270 272 272 266 270 273 277 279 283 284 284 283 281 280 280 278 277 275 274 273 275 273 273 270 268
222 225 229 232 237 241 244 246 248 249 251 254 255 257 259 260 262 262 264 269 264 265 271 277 281 283 285 285 285 284 283 282 275 272 272 274 276 276 275 273 271 269 270
226 233 236 241 243 245 247 250 253 256 259 260 258 260 261 261 259 263 266 262 268 274 279 284 288 288 287 287 286 284 282 279 278 278 272 269 271 272 270 274 271 267 264
234 238 241 243 245 249 253 255 258 262 264 265 265 269 267 270 271 273 271 269 276 283 288 292 295 293 291 289 288 287 285 283 279 274 272 267 264 266 271 269 268 269 267
239 242 248 249 252 255 256 259 261 262 265 268 271 271 272 276 280 275 277 281 287 291 292 296 295 294 294 293 291 289 286 284 283 279 275 268 266 265 266 269 271 271 270
245 247 250 256 258 258 261 262 264 266 268 269 270 270 268 256 261 269 275 281 288 289 291 291 291 292 293 293 291 289 288 287 285 284 280 277 270 267 267 267 268 270 272
248 250 252 255 258 261 261 265 266 267 266 267 267 267 268 269 270 275 280 285 288 288 288 288 290 290 290 290 289 290 289 289 288 284 280 278 275 272 270 268 268 269 270
249 252 254 256 258 260 262 264 266 264 264 266 268 273 277 279 279 280 284 289 287 286 286 287 287 286 286 287 291 293 293 291 286 281 280 279 277 274 271 271 270 270 272
252 254 256 259 259 261 262 264 263 263 267 271 276 277 279 282 282 284 286 284 284 284 284 284 283 280 278 285 287 299 299 289 280 278 279 277 275 274 273 274 274 276 277
252 253 256 257 257 259 264 265 265 271 272 272 274 274 279 283 283 282 282 282 283 282 283 283 278 271 274 281 288 304 307 292 275 269 270 274 278 278 276 275 278 282 284